Location: Poinsettia Observatory
(32.9673°N, 117.0346°W)
Time: 08:14:52
(UTC-07:00)

Daily predictions for brighter satellites

Satellite Brightness Start Highest point End
(mag) Time Altitude Azimuth Time Altitude Azimuth Time Altitude Azimuth
Cosmos 1934 Rocket 4.1 19:22:25 10° S 19:28:33 87° W 19:34:39 10° N
Tiangong 1 2.3 19:28:09 10° WNW 19:30:51 34° SW 19:33:32 10° SSE
Cosmos-2242 4.1 19:32:32 10° SE 19:35:53 23° E 19:39:14 10° NE
Cosmos 2082 Rocket 2.9 19:32:18 10° N 19:37:24 33° ENE 19:42:26 10° SE
Cosmos 1818 3.8 19:33:46 10° NNW 19:39:05 52° ENE 19:44:20 10° SE
FengYun 1-2 T 4.4 19:36:18 10° SSE 19:41:40 52° ENE 19:47:06 10° N
USA 215 4.4 19:38:28 10° ENE 19:43:12 21° ESE 19:47:55 10° S
ALOS 2.3 19:40:15 10° SSE 19:44:50 63° ENE 19:49:28 10° N
BREEZE-M DEB (TANK) 4.3 19:43:03 10° W 19:45:26 32° NNW 19:50:08 10° NE
Cosmos 1271 Rocket 3.6 19:42:01 10° SSE 19:45:30 29° E 19:49:00 10° NNE
GP-B 4.1 19:45:28 10° SE 19:49:11 27° E 19:52:54 10° NNE
Meteor 1-4 Rocket 2.4 19:46:13 10° S 19:49:41 86° E 19:53:10 10° N
Cosmos 1674 3.6 19:49:32 10° NNE 19:52:51 28° E 19:56:08 10° SE
PSLV R/B 3.4 19:50:29 10° SW 19:53:30 47° SSE 19:55:48 16° ENE
Spot 2 Rocket 3.8 19:50:07 10° SE 19:54:58 47° ENE 19:59:52 10° N
Cosmos 1758 3.4 19:52:23 10° S 19:56:21 82° W 20:00:22 10° N
Gblst 52 Del rocket 4.4 19:53:08 10° SSW 19:59:18 55° SE 20:04:51 10° NE
Resurs 01 Rocket 1.7 19:56:21 10° SSE 20:00:39 56° ENE 20:04:59 10° N
Cosmos 1953 2.5 19:57:47 10° S 20:01:51 78° W 20:05:54 10° N
GPS 2-05 Rocket1 3.4 19:59:53 10° W 20:03:21 53° N 20:05:45 19° ENE
Cosmos 2098 Rocket 4.4 19:56:26 10° S 20:03:40 85° E 20:11:18 10° N
Cosmos 1544 4.3 20:01:25 10° SSW 20:04:54 45° W 20:08:27 10° N
Delta 128 4.3 20:05:53 10° WSW 20:10:19 42° S 20:12:48 22° SE
CZ-4C R/B 3.1 20:07:26 10° SSE 20:11:18 22° ESE 20:12:08 21° E
OAO 2 Rocket 3.4 20:06:38 10° WSW 20:11:43 64° SSE 20:15:07 21° E
Envisat 4.0 20:11:41 21° E 20:13:21 25° ENE 20:17:29 10° NNE
Cosmos 1939 Rocket 4.5 20:17:33 19° ENE 20:17:33 19° ENE 20:20:08 10° NNE
SeaSat 1 2.4 20:12:34 12° SSE 20:17:12 74° ENE 20:22:07 10° NNW
Cosmos 2369 Rocket 3.2 20:18:02 10° SSE 20:23:53 24° E 20:27:09 10° NE
CZ-2D R/B 3.1 20:19:32 13° SSE 20:22:57 77° ENE 20:26:50 10° N
Cosmos 2100 Rocket 3.9 20:17:01 10° S 20:23:18 74° E 20:29:39 10° N
ISS -0.9 20:22:26 10° WNW 20:24:31 16° NNW 20:26:35 10° N
Lacrosse 5 rocket 1.9 20:21:51 10° NNW 20:25:22 33° NE 20:25:53 31° ENE
FENGYUN 3A 4.4 20:20:18 10° S 20:25:33 53° W 20:30:50 10° NNW
Delta 168 4.0 20:24:08 10° WSW 20:27:41 24° S 20:28:30 22° S
Helios 1B rocket 2.3 20:24:24 10° NNE 20:28:30 70° ESE 20:32:35 10° S
Geosat 3.9 20:24:53 10° NNE 20:29:55 84° ESE 20:34:56 10° SSW
H-2A R/B 3.8 20:26:16 10° WSW 20:31:35 71° S 20:52:51 22° E
H-2A R/B 3.8 20:26:16 10° WSW 20:31:35 71° S 20:52:52 22° E
H-2A R/B 3.8 20:26:16 10° WSW 20:31:35 71° S 20:52:53 22° E
H-2A R/B 3.8 20:26:16 10° WSW 20:31:35 71° S 20:52:49 22° E
H-2A R/B 3.8 20:26:16 10° WSW 20:31:36 71° S 20:52:52 22° E
H-2A R/B 3.8 20:26:15 10° WSW 20:31:36 71° S 20:52:54 22° E
Cosmos 1048 Rocket 4.2 20:26:56 10° NNW 20:32:01 71° WSW 20:37:07 10° S
Cosmos 1408 Rocket 3.6 20:28:34 10° N 20:33:02 80° W 20:37:29 10° S
Resurs 1-3 3.8 20:29:02 10° S 20:33:23 69° WSW 20:37:46 10° NNW
Cosmos 1733 3.8 20:33:56 10° SSW 20:37:44 58° W 20:41:34 10° N
Cosmos 1833 Rocket 2.8 20:33:13 10° NNW 20:38:50 78° WSW 20:43:06 18° SSE
CZ-3 Stage 3 3.6 19:58:02 10° W 20:42:32 81° S 20:46:33 34° ESE
Cosmos 1842 Rocket 3.4 20:42:30 31° SSE 20:44:30 67° E 20:48:52 10° NNE
ATLAS 5 CENTAUR R/B 4.0 20:41:12 10° WSW 20:45:03 25° NW 20:49:11 10° N
H-II Stage 2 2.6 20:43:14 10° WSW 20:44:24 26° SW 20:44:24 26° SW
Cosmos 1470 4.0 20:41:36 10° SSW 20:45:23 43° W 20:49:12 10° N
Cosmos 1802 Rocket 3.9 20:42:22 10° S 20:48:30 88° W 20:54:42 10° N
Meteor 1-29 3.2 20:47:06 10° N 20:50:34 69° WNW 20:51:34 42° SW
Helios 1A 2.9 20:49:20 45° S 20:50:34 82° WSW 20:54:46 10° NNW
SAR-Lupe-4 4.4 21:00:29 46° WSW 21:00:47 48° W 21:04:16 10° NNW
SJ-11-01 4.1 21:07:15 85° NE 21:07:15 85° NE 21:11:55 10° N
Cosmos 1340 Rocket 3.9 21:04:31 10° NNW 21:08:18 42° W 21:09:07 36° SW
Aurora 2 Rocket 4.0 21:02:11 10° WSW 21:08:58 38° S 21:09:22 38° S
Cosmos 1356 Rocket 4.5 21:07:22 10° N 21:09:54 37° N 21:09:54 37° N
Cosmos 2251 Rocket 3.5 21:12:00 10° NNW 21:17:07 81° NNE 21:17:07 81° NNE
Cosmos 2082 Rocket 4.0 21:16:35 10° NW 21:21:16 27° WSW 21:25:31 12° SSW
Cosmos 1864 Rocket 4.5 21:18:56 32° S 21:22:04 84° W 21:28:24 10° N
USA 215 3.2 21:19:59 10° NE 21:26:32 80° NW 21:33:03 10° SW
CZ-4C R/B 3.5 21:54:31 10° WSW 22:02:39 20° N 22:04:43 10° NNE
Cosmos 2369 Rocket 3.6 22:01:17 10° SW 22:06:23 34° WNW 22:11:28 10° N
